Flag for Greenland Weather past 2 weeks in Nuuk, Greenland

Now
30 °F

Partly sunny.


Feels Like: 27 °F
Forecast: 30 / 35 °F
Wind: 3 mph from North

Location: Godthaab / Nuuk

Current Time: Jun 3, 2015 at 5:39:52 AM

Latest Report: Jun 3, 2015 at 4:50 AM


Visibility: N/A

Pressure: 30.24 "Hg

Humidity: 86%

Dew point: 27 °F

Location of NuukLocation

Historic Weather in Nuuk — Graph

°F

Nuuk temperature yesterday

Maximum temperature yesterday: 32 °F (at 10:50 AM)
Minimum temperature yesterday: 28 °F (at 2:50 AM)
Average temperature yesterday: 31 °F

Past Weeks' High & Low Weather Summary

 TemperatureHumidityPressure
High41 °F (May 26, 4:50 PM)100% (May 22, 10:50 AM)30.21 "Hg (May 22, 10:50 AM)
Low23 °F (May 19, 4:50 AM)39% (May 31, 11:50 PM)29.33 "Hg (May 29, 12:50 AM)
Average31 °F80%29.73 "Hg
* Reported May 19 3:50 AM — Jun 3 3:50 AM, Nuuk, Weather by CustomWeather, © 2015

Note: Actual official high and low records may vary slightly from our data, if they occured in-between our weather recording intervals... More about our weather records

Advertising

Nuuk weather history for previous 24 hours

 ConditionsComfort  
Time TempWeatherWind HumidityBarometerVisibility
3:50 AM
Wed, Jun 3
30 °FPassing clouds.3 mph86%30.21 "HgN/A
2:50 AM30 °FPassing clouds.3 mph86%30.21 "HgN/A
1:50 AM30 °FOvercast.3 mph86%30.21 "HgN/A
12:50 AM30 °FOvercast.5 mph86%30.21 "HgN/A
11:50 PM
Tue, Jun 2
30 °FOvercast.5 mph80%30.21 "HgN/A
10:50 PM32 °FOvercast.5 mph75%30.21 "HgN/A
9:50 PM32 °FOvercast.6 mph75%30.18 "HgN/A
8:50 PM32 °FPartly sunny.5 mph80%30.18 "HgN/A
7:50 PM32 °FOvercast.7 mph75%30.18 "HgN/A
6:50 PM32 °FPartly sunny.7 mph80%30.18 "HgN/A
5:50 PM32 °FPartly sunny.8 mph80%30.15 "HgN/A
5:20 PM32 °FPartly sunny.6 mph75%30.15 "HgN/A
4:50 PM32 °FPartly sunny.5 mph75%30.15 "HgN/A
4:20 PM32 °FPartly sunny.3 mph75%30.15 "HgN/A
2:50 PM32 °FPartly sunny.3 mph80%30.15 "HgN/A
1:50 PM32 °FSnow flurries. Partly sunny.5 mph80%30.15 "HgN/A
12:50 PM32 °FPartly sunny.5 mph75%30.12 "HgN/A
11:50 AM32 °FPartly sunny.6 mph75%30.12 "HgN/A
10:50 AM32 °FPartly sunny.6 mph75%30.12 "HgN/A
9:50 AM30 °FPartly sunny.5 mph80%30.12 "HgN/A
8:50 AM30 °FPartly sunny.6 mph75%30.12 "HgN/A
7:50 AM30 °FPartly sunny.6 mph80%30.12 "HgN/A
6:50 AM28 °FLight snow. Partly sunny.5 mph93%30.12 "HgN/A
5:50 AM30 °FPartly sunny.3 mph80%30.12 "HgN/A
Weather by CustomWeather, © 2015

See weather overviewHow to use our weather pages